TimeEST,TemperatureF,Dew PointF,Humidity,Sea Level PressureIn,VisibilityMPH,Wind Direction,Wind SpeedMPH,Gust SpeedMPH,PrecipitationIn,Events,Conditions,WindDirDegrees,DateUTC
12:15 AM,37.6,24.4,59,30.29,10.0,Calm,Calm,-,N/A,,Clear,0,2013-12-14 05:15:00
12:35 AM,37.8,23.9,57,30.29,10.0,Calm,Calm,-,N/A,,Clear,0,2013-12-14 05:35:00
12:55 AM,37.4,25.0,61,30.29,10.0,Calm,Calm,-,N/A,,Clear,0,2013-12-14 05:55:00
1:15 AM,35.6,28.9,77,30.29,10.0,Calm,Calm,-,N/A,,Clear,0,2013-12-14 06:15:00
1:35 AM,36.9,25.7,64,30.27,10.0,Calm,Calm,-,N/A,,Clear,0,2013-12-14 06:35:00
1:55 AM,37.4,25.3,62,30.28,10.0,Calm,Calm,-,N/A,,Scattered Clouds,0,2013-12-14 06:55:00
2:15 AM,37.6,25.0,60,30.28,10.0,Calm,Calm,-,N/A,,Scattered Clouds,0,2013-12-14 07:15:00
2:35 AM,37.9,24.8,59,30.29,10.0,Calm,Calm,-,N/A,,Scattered Clouds,0,2013-12-14 07:35:00
2:55 AM,37.2,26.2,65,30.29,10.0,Calm,Calm,-,N/A,,Clear,0,2013-12-14 07:55:00
3:15 AM,36.5,28.2,72,30.29,10.0,Calm,Calm,-,N/A,,Clear,0,2013-12-14 08:15:00
3:35 AM,36.3,28.2,72,30.29,10.0,Calm,Calm,-,N/A,,Scattered Clouds,0,2013-12-14 08:35:00
3:55 AM,36.3,29.5,76,30.29,10.0,Calm,Calm,-,N/A,,Overcast,0,2013-12-14 08:55:00
4:15 AM,36.5,29.1,75,30.28,10.0,Calm,Calm,-,N/A,,Overcast,0,2013-12-14 09:15:00
4:35 AM,37.4,26.4,65,30.27,10.0,Calm,Calm,-,N/A,,Overcast,0,2013-12-14 09:35:00
4:55 AM,37.4,27.1,66,30.27,10.0,Calm,Calm,-,N/A,,Overcast,0,2013-12-14 09:55:00
5:15 AM,36.9,28.8,72,30.27,10.0,Calm,Calm,-,N/A,,Overcast,0,2013-12-14 10:15:00
5:35 AM,37.0,28.9,73,30.27,10.0,SSW,3.5,-,N/A,,Overcast,200,2013-12-14 10:35:00
5:55 AM,37.6,27.9,68,30.26,10.0,Calm,Calm,-,N/A,,Overcast,0,2013-12-14 10:55:00
6:15 AM,38.5,27.3,64,30.26,10.0,Calm,Calm,-,N/A,,Overcast,0,2013-12-14 11:15:00
6:35 AM,38.8,27.9,65,30.26,10.0,SSE,5.8,-,N/A,,Light Drizzle,160,2013-12-14 11:35:00
6:55 AM,38.7,27.7,65,30.25,10.0,Calm,Calm,-,N/A,Rain,Light Rain,0,2013-12-14 11:55:00
7:15 AM,37.6,30.7,76,30.24,10.0,Calm,Calm,-,N/A,Rain,Light Rain,0,2013-12-14 12:15:00
7:35 AM,37.6,31.1,77,30.23,10.0,East,4.6,-,N/A,,Overcast,80,2013-12-14 12:35:00
7:55 AM,41.4,25.0,52,30.23,10.0,SE,8.1,-,N/A,,Mostly Cloudy,130,2013-12-14 12:55:00
8:15 AM,42.1,23.9,49,30.24,10.0,SSE,8.1,-,N/A,,Scattered Clouds,150,2013-12-14 13:15:00
8:35 AM,42.3,24.4,49,30.24,10.0,SE,5.8,-,N/A,,Clear,140,2013-12-14 13:35:00
8:55 AM,42.8,24.6,49,30.24,10.0,SE,8.1,-,N/A,,Scattered Clouds,140,2013-12-14 13:55:00
9:15 AM,43.2,24.6,48,30.24,10.0,SE,5.8,-,N/A,,Mostly Cloudy,140,2013-12-14 14:15:00
9:35 AM,43.7,23.9,46,30.24,10.0,SE,9.2,-,N/A,,Overcast,130,2013-12-14 14:35:00
9:55 AM,43.9,23.9,45,30.22,10.0,SE,4.6,-,N/A,,Overcast,130,2013-12-14 14:55:00
10:15 AM,44.2,25.0,47,30.21,10.0,ESE,5.8,-,N/A,,Overcast,110,2013-12-14 15:15:00
10:35 AM,45.5,24.1,43,30.19,10.0,ESE,8.1,-,N/A,,Overcast,120,2013-12-14 15:35:00
10:55 AM,46.4,21.2,37,30.19,10.0,SE,9.2,-,N/A,,Overcast,130,2013-12-14 15:55:00
11:15 AM,46.0,21.6,38,30.17,10.0,ESE,6.9,-,N/A,,Overcast,110,2013-12-14 16:15:00
11:35 AM,45.9,23.2,41,30.17,10.0,Calm,Calm,-,N/A,,Overcast,0,2013-12-14 16:35:00
11:55 AM,45.3,27.0,49,30.14,10.0,East,5.8,-,N/A,,Overcast,100,2013-12-14 16:55:00
12:15 PM,43.7,30.7,60,30.13,10.0,East,5.8,-,N/A,Rain,Light Rain,90,2013-12-14 17:15:00
12:35 PM,41.5,34.3,76,30.12,3.0,East,3.5,-,0.03,Rain,Rain,90,2013-12-14 17:35:00
12:55 PM,40.3,36.5,86,30.10,2.0,ENE,4.6,-,0.08,Rain,Heavy Rain,70,2013-12-14 17:55:00
1:15 PM,39.4,37.0,91,30.08,2.0,NE,3.5,-,0.06,Rain,Heavy Rain,50,2013-12-14 18:15:00
1:35 PM,39.4,37.4,93,30.06,2.0,ENE,3.5,-,0.10,Rain,Heavy Rain,60,2013-12-14 18:35:00
1:55 PM,39.2,37.6,94,30.01,5.0,NE,8.1,-,0.10,,Overcast,50,2013-12-14 18:55:00
2:15 PM,39.2,37.4,93,29.97,7.0,ENE,11.5,-,N/A,,Overcast,60,2013-12-14 19:15:00
2:35 PM,39.2,37.6,94,29.96,7.0,ENE,10.4,-,N/A,,Overcast,60,2013-12-14 19:35:00
2:55 PM,39.4,37.9,95,29.94,5.0,ENE,10.4,16.1,N/A,,Overcast,70,2013-12-14 19:55:00
3:15 PM,39.4,38.1,95,29.95,5.0,ENE,8.1,-,N/A,Rain,Rain,70,2013-12-14 20:15:00
3:35 PM,39.4,37.9,95,29.95,2.5,NNE,4.6,-,0.05,Rain,Rain,20,2013-12-14 20:35:00
3:55 PM,39.4,38.3,96,29.95,1.8,North,6.9,-,0.14,Rain,Heavy Rain,10,2013-12-14 20:55:00
4:15 PM,39.2,37.9,95,29.97,1.5,North,5.8,-,0.11,Rain,Heavy Rain,360,2013-12-14 21:15:00
4:35 PM,39.2,37.8,95,29.95,2.5,North,5.8,-,0.21,Rain,Heavy Rain,10,2013-12-14 21:35:00
4:55 PM,39.0,37.8,95,29.91,2.5,NE,8.1,-,0.26,Rain,Rain,40,2013-12-14 21:55:00
5:15 PM,38.8,37.8,96,29.88,4.0,NE,9.2,-,0.03,Rain,Light Rain,40,2013-12-14 22:15:00
5:35 PM,39.2,37.9,95,29.89,4.0,North,9.2,-,0.06,Rain,Light Rain,360,2013-12-14 22:35:00
5:55 PM,38.7,37.6,96,29.88,1.8,North,6.9,-,0.09,Rain,Light Rain,360,2013-12-14 22:55:00
6:15 PM,38.5,37.4,96,29.89,7.0,Calm,Calm,-,0.03,,Drizzle,0,2013-12-14 23:15:00
6:35 PM,38.5,37.4,96,29.88,10.0,NNW,3.5,-,0.05,,Light Drizzle,330,2013-12-14 23:35:00
6:55 PM,38.5,37.4,96,29.88,10.0,NW,6.9,-,0.07,,Overcast,320,2013-12-14 23:55:00
7:15 PM,38.3,37.4,97,29.87,7.0,WNW,4.6,-,N/A,,Overcast,300,2013-12-15 00:15:00
7:35 PM,38.5,37.4,96,29.86,7.0,North,3.5,-,N/A,,Overcast,350,2013-12-15 00:35:00
7:55 PM,38.5,37.4,96,29.85,7.0,NNW,4.6,-,N/A,,Overcast,340,2013-12-15 00:55:00
8:15 PM,38.3,37.4,97,29.83,7.0,North,4.6,-,N/A,,Overcast,360,2013-12-15 01:15:00
8:35 PM,38.3,37.4,97,29.84,7.0,NW,3.5,-,N/A,,Overcast,310,2013-12-15 01:35:00
8:55 PM,38.3,37.4,97,29.80,5.0,NNW,5.8,-,N/A,,Overcast,330,2013-12-15 01:55:00
9:15 PM,37.9,37.0,97,29.80,4.0,NW,5.8,-,N/A,,Overcast,310,2013-12-15 02:15:00
9:35 PM,37.8,36.9,97,29.79,2.0,NW,3.5,-,N/A,,Overcast,320,2013-12-15 02:35:00
9:55 PM,37.4,36.5,97,29.82,1.8,WNW,4.6,-,N/A,,Overcast,300,2013-12-15 02:55:00
10:15 PM,36.9,36.0,97,29.82,1.2,NW,8.1,-,N/A,,Overcast,320,2013-12-15 03:15:00
10:35 PM,36.3,35.6,97,29.79,1.0,NNW,6.9,-,N/A,,Overcast,330,2013-12-15 03:35:00
10:55 PM,36.1,35.4,97,29.78,1.0,Calm,Calm,-,N/A,,Overcast,0,2013-12-15 03:55:00
11:15 PM,36.1,35.6,98,29.80,1.0,West,4.6,-,N/A,,Overcast,280,2013-12-15 04:15:00
11:35 PM,36.0,35.2,97,29.80,1.2,NW,4.6,-,N/A,,Overcast,310,2013-12-15 04:35:00
11:55 PM,36.0,35.4,98,29.78,1.2,WNW,3.5,-,N/A,,Overcast,290,2013-12-15 04:55:00